RH
41 41 41 41 42 42 40 39 40 42 46 53 61 70 78 81 83 83 83 82 80 78 77 78 77 76 73 72 70 68 67 66 63 60 55 50 50 53 60 62 62 60 56 54 52 53 56 57 58 59 59 60 61 63 64 65 66 67 69 70 72 73 74 74 74 74 75 76 77 79 81 83 83 84 85 86 86 85 85 85 85 83 81 79 79 81
41 41 41 42 42 42 42 41 41 42 44 48 53 61 73 79 82 83 83 83 82 81 78 78 78 78 77 76 74 73 71 69 67 63 58 52 49 52 59 62 62 61 59 58 57 57 57 58 58 58 58 59 60 61 62 63 63 65 66 67 69 70 71 71 71 72 73 74 75 77 78 81 83 84 85 85 85 86 87 88 87 86 84 83 82 81
41 41 41 42 42 43 43 42 41 41 42 44 48 57 70 77 81 82 82 83 84 83 81 79 78 78 78 77 77 76 75 73 71 68 63 55 50 50 58 61 60 59 59 60 61 60 59 59 59 59 58 59 60 61 61 61 62 62 63 65 66 67 68 69 69 70 70 71 73 74 76 78 82 84 86 86 86 87 89 90 90 90 88 87 85 83
42 42 42 43 44 43 43 43 42 41 40 42 46 54 66 73 78 81 82 83 84 84 83 80 78 77 77 77 78 77 77 75 73 69 65 58 51 49 56 58 56 55 55 58 59 60 60 61 61 60 59 60 61 62 62 62 61 61 61 63 64 65 66 67 67 68 68 69 70 72 74 76 80 83 85 86 87 88 90 91 92 92 92 89 87 84
43 43 44 45 45 44 43 42 41 40 40 40 44 50 60 67 73 78 81 82 84 84 84 82 79 77 76 77 78 78 77 77 74 70 66 62 56 53 58 58 54 50 50 54 57 59 61 62 62 62 62 62 63 64 66 65 63 62 61 62 63 64 66 66 66 66 67 68 69 70 71 73 77 80 83 84 85 87 89 91 91 92 92 90 88 86
45 45 46 45 45 45 44 42 40 39 39 39 41 45 53 60 67 73 77 80 83 85 86 84 82 79 76 76 77 78 78 78 76 73 71 69 68 68 70 67 60 52 50 52 55 58 61 64 65 64 64 66 67 68 69 68 66 64 63 62 63 64 66 66 66 66 66 67 67 68 68 69 71 74 76 78 79 80 83 84 87 89 92 91 89 86
48 48 47 47 47 47 46 42 40 39 38 38 39 41 46 53 60 67 73 78 82 85 87 86 84 81 77 76 76 77 78 78 78 78 78 78 78 80 82 80 73 65 57 55 56 58 62 68 69 67 67 69 71 71 71 70 69 67 65 63 64 64 67 66 65 65 65 66 66 66 66 67 68 68 69 70 71 72 74 76 79 82 86 88 88 86
50 49 47 48 49 49 46 42 40 39 39 39 38 38 40 46 53 60 68 75 80 84 86 87 86 83 79 76 75 76 77 78 79 80 83 84 83 83 85 84 82 76 69 63 60 60 63 68 70 69 69 72 73 74 74 73 72 71 68 65 64 65 67 66 66 65 65 65 65 65 65 66 66 66 65 65 66 67 69 71 74 77 80 84 85 85
50 49 49 50 50 48 45 42 40 40 40 40 39 38 37 41 46 53 62 69 76 82 86 87 86 84 81 78 75 75 75 77 78 81 85 85 85 84 84 83 82 80 78 71 65 62 64 67 68 69 70 73 75 76 76 76 75 73 70 66 65 66 67 66 65 65 65 65 65 65 65 65 65 65 64 64 64 64 66 69 72 75 78 83 85 85
51 50 50 52 51 48 45 43 43 42 41 40 39 38 38 39 42 46 53 61 70 78 84 86 86 85 83 80 77 74 74 75 77 80 84 85 84 83 81 80 80 80 80 75 70 66 65 66 66 67 70 73 75 76 77 77 76 74 71 68 67 67 67 66 66 66 66 66 66 66 66 66 66 66 65 64 63 63 64 67 71 74 77 82 85 86
51 51 49 51 50 48 45 45 45 44 42 40 38 38 37 38 39 41 44 52 62 71 80 84 85 85 85 83 79 75 73 73 75 78 81 84 83 82 79 78 77 78 80 78 74 69 66 65 65 65 69 72 75 76 77 77 77 76 73 70 68 67 67 66 65 66 67 67 67 67 67 68 68 67 65 63 62 62 64 68 70 73 76 80 83 85
52 51 49 49 48 47 46 46 45 44 41 39 37 36 35 36 37 38 39 45 53 63 73 81 84 85 85 84 82 77 73 72 74 76 79 81 82 82 80 78 76 76 79 80 78 73 67 64 62 63 67 71 73 74 76 78 78 77 75 72 69 68 67 66 65 66 67 68 68 68 68 69 69 68 65 63 62 62 65 69 70 71 74 78 80 82
52 51 49 48 48 48 47 46 45 42 39 37 36 35 34 35 35 37 37 40 46 54 65 75 82 84 84 84 83 81 76 74 74 75 76 79 80 81 80 78 76 76 78 82 80 76 69 64 61 60 64 68 70 72 74 77 78 78 76 73 71 69 67 66 65 66 67 68 68 68 69 70 70 68 65 62 61 62 66 70 70 70 74 78 79 79
52 51 50 48 48 48 48 47 44 42 40 39 38 37 37 36 35 35 36 37 40 46 56 67 75 81 84 84 83 82 80 77 75 74 74 76 78 79 79 77 75 75 76 81 81 77 70 64 60 59 61 65 67 69 71 75 77 78 77 75 73 70 68 66 65 65 67 68 69 69 68 70 69 68 65 62 62 63 66 69 69 71 75 79 80 79
52 51 50 49 49 49 50 48 46 45 45 43 42 40 38 36 34 32 32 33 36 39 46 56 66 76 82 84 83 82 82 80 77 75 73 74 76 77 78 76 74 73 74 78 78 76 70 66 62 59 59 61 64 66 68 71 75 77 78 76 74 72 69 67 66 66 67 68 69 69 68 69 69 67 64 62 62 63 66 69 70 71 75 78 79 79
53 52 51 50 50 51 52 51 50 49 48 45 42 39 36 33 31 30 30 31 32 34 38 46 56 66 76 82 83 83 81 81 79 77 74 75 76 77 76 75 73 71 72 76 77 75 71 67 63 60 59 60 62 64 66 68 72 75 78 77 75 73 70 68 67 66 67 69 70 70 70 70 69 67 64 62 62 64 67 69 71 71 73 77 78 78
54 53 52 51 51 51 53 52 51 50 49 46 42 39 36 34 33 33 33 31 31 31 33 39 46 56 66 75 80 81 80 81 80 79 75 75 75 76 75 74 72 70 70 74 76 77 74 69 65 61 59 60 61 62 64 66 69 73 77 77 76 74 71 69 68 67 67 69 70 70 71 71 70 68 64 62 62 64 67 70 71 71 72 75 77 77
54 54 53 52 52 53 53 53 52 51 49 46 43 41 39 38 36 35 33 31 30 29 31 35 40 47 57 65 73 79 81 80 81 81 78 76 75 75 75 74 72 70 69 72 76 77 76 71 67 63 60 60 60 61 63 64 67 70 74 76 76 75 72 70 68 67 68 68 69 70 71 73 72 69 65 64 63 64 67 70 71 71 71 73 75 76
55 54 53 53 54 54 54 53 52 51 49 47 45 43 41 39 36 34 32 30 29 29 29 32 36 41 48 56 65 74 81 79 80 82 80 77 75 75 75 74 72 70 68 71 74 76 76 72 68 65 61 61 61 61 62 63 65 67 71 75 76 75 73 71 69 68 68 69 70 70 71 73 74 72 68 66 65 66 67 70 71 71 71 73 74 75
55 54 54 55 54 54 54 54 53 52 50 48 46 44 42 39 36 34 32 31 30 30 30 30 32 36 42 49 57 66 74 76 78 79 79 78 76 76 75 75 73 71 69 70 73 75 75 73 69 66 63 61 61 61 62 63 64 65 67 71 74 75 74 71 70 69 68 69 69 69 70 74 75 73 70 69 69 68 69 72 73 73 74 74 74 75
55 54 54 54 54 54 54 54 53 52 51 49 47 44 42 40 38 35 34 33 32 31 30 29 30 33 37 43 49 57 66 72 75 76 77 76 76 76 76 76 75 73 71 72 74 76 74 72 70 67 64 62 61 61 61 62 63 63 64 68 71 73 74 72 70 69 69 69 68 68 70 75 76 75 73 72 72 72 72 74 76 77 76 76 76 77
55 54 53 53 54 54 54 53 53 51 50 48 46 44 42 40 38 36 34 33 32 30 29 29 30 31 34 38 44 51 59 65 70 73 75 73 74 76 78 78 77 76 75 76 77 77 75 72 70 68 65 63 61 61 61 61 62 62 63 65 68 71 73 72 70 69 68 69 68 68 70 77 79 78 76 75 75 75 75 77 78 79 78 78 78 78
56 54 52 52 53 53 53 52 51 50 48 47 45 44 42 41 38 37 35 34 32 31 30 30 30 31 32 35 40 45 51 59 65 70 71 70 72 75 79 81 81 81 80 81 81 80 77 73 71 68 66 64 62 61 60 61 61 62 62 63 65 68 71 71 70 69 69 68 69 71 73 76 79 80 80 79 79 79 79 80 81 81 80 79 79 79
57 54 53 52 52 51 51 50 49 48 46 45 44 43 42 40 39 37 36 34 33 32 32 32 31 31 31 34 37 42 47 54 60 65 67 66 68 72 78 82 84 84 84 83 83 83 79 76 72 69 67 64 62 61 60 61 61 61 61 61 63 65 68 69 70 69 68 68 70 74 77 78 80 82 82 82 82 82 82 83 83 83 82 81 81 81
59 56 53 51 50 49 49 48 48 47 46 45 44 43 41 39 39 38 37 35 34 33 32 31 30 29 30 33 37 41 45 51 57 62 64 65 66 68 73 79 83 85 85 84 83 83 81 77 74 71 68 64 62 60 60 60 60 61 61 61 62 63 66 68 69 69 67 68 71 76 80 82 83 82 83 83 83 84 84 85 85 85 84 83 83 83
60 57 54 52 50 49 49 48 48 47 47 46 45 43 41 40 39 38 37 35 34 33 32 31 30 30 32 34 37 40 44 49 54 59 62 63 63 63 66 74 80 84 86 85 84 82 80 78 75 72 69 65 62 60 60 60 60 60 60 60 60 61 63 66 67 68 67 68 71 75 79 82 83 83 84 84 84 85 86 86 87 86 85 85 85 85
60 57 55 53 52 50 50 49 48 48 47 47 45 44 42 40 38 37 36 35 35 34 33 32 32 32 34 35 37 39 42 47 51 55 58 59 59 59 62 68 75 81 84 85 85 83 82 79 75 72 68 65 62 60 59 59 59 59 60 60 60 60 62 64 66 68 68 68 70 74 78 80 82 84 85 85 86 87 88 88 88 88 88 87 87 87
60 58 56 54 53 51 50 50 49 49 48 47 45 44 42 40 38 37 36 35 35 35 35 34 34 34 34 35 36 39 41 45 49 52 55 57 58 59 62 66 71 77 81 83 85 85 84 80 76 72 67 64 61 59 59 59 59 59 59 59 59 60 60 62 65 67 68 67 70 73 77 79 81 82 83 85 87 88 90 90 90 90 90 91 90 90
59 57 55 54 53 52 51 50 50 49 48 47 45 44 42 40 39 38 37 36 36 35 35 35 34 34 34 35 37 39 41 43 46 50 53 56 58 60 64 67 70 73 77 81 84 86 86 82 77 72 67 62 60 58 58 59 59 59 58 58 59 59 60 62 65 67 69 67 69 71 74 77 79 80 81 83 85 87 89 90 90 91 92 92 92 92
57 55 54 53 53 52 52 51 51 50 49 47 46 44 42 41 39 38 37 36 36 36 35 35 35 35 35 37 39 40 40 41 43 46 49 53 56 60 64 65 67 69 74 79 83 86 86 83 79 74 68 63 59 58 57 58 59 59 58 58 59 60 60 62 65 69 70 68 68 69 71 75 77 78 79 79 81 84 86 88 89 90 92 91 91 91
56 54 53 53 53 53 53 52 52 51 49 48 46 45 43 42 40 39 37 37 36 36 35 35 35 35 37 39 39 40 39 39 41 43 46 51 55 59 61 61 62 65 71 77 82 85 86 85 81 76 71 65 61 58 57 58 58 58 58 59 60 61 61 63 67 70 71 68 67 68 69 72 74 76 77 78 79 80 82 84 86 87 89 90 90 89
56 54 53 53 53 54 54 53 53 52 50 49 47 45 44 42 41 39 38 37 36 36 36 35 35 35 37 39 40 40 40 41 41 42 45 50 55 58 61 60 60 62 69 75 80 84 85 85 83 79 74 69 63 59 57 57 57 58 58 60 62 63 64 65 68 71 72 70 69 69 70 71 72 74 74 76 77 78 80 81 82 83 85 87 88 88
56 54 53 54 54 55 55 55 54 53 52 50 48 46 44 43 41 40 38 37 36 36 35 35 35 35 37 40 41 41 42 43 42 42 45 52 59 65 67 64 62 63 67 73 77 81 82 83 83 80 76 71 65 61 57 56 56 58 59 61 64 66 67 68 70 71 72 72 71 71 71 71 72 72 72 73 75 76 77 77 78 78 80 81 83 85
57 56 55 56 56 56 57 56 56 55 54 52 50 47 46 44 42 40 39 38 37 36 35 35 34 35 37 39 42 43 44 43 42 44 51 59 66 71 74 70 67 66 67 69 73 76 78 79 79 79 77 72 67 62 58 56 56 57 59 62 65 67 68 69 70 71 72 72 73 73 73 72 72 72 71 71 71 71 72 72 72 73 73 74 77 79
57 56 56 56 56 56 56 56 56 56 56 55 53 50 48 45 43 42 40 39 38 36 35 35 34 35 36 40 43 45 45 44 45 49 61 69 73 75 77 76 74 72 71 68 69 71 73 74 75 76 75 72 68 63 59 57 56 56 58 61 64 66 68 69 70 72 72 72 73 74 74 73 72 72 71 70 69 68 68 67 67 67 67 68 69 71
57 56 56 56 55 55 55 55 55 55 55 55 54 52 49 47 45 43 42 40 39 38 36 35 35 35 37 41 44 47 48 48 51 59 72 77 79 80 81 81 81 80 77 71 68 67 69 68 69 70 72 71 69 65 61 58 56 56 57 60 63 65 66 68 70 72 73 72 73 73 74 74 73 72 71 70 69 68 67 66 66 65 65 65 66 67
57 56 55 55 55 55 54 54 54 55 55 54 54 52 50 48 46 44 43 42 40 39 38 36 36 36 38 41 45 48 50 53 58 68 82 83 83 82 83 82 82 82 80 74 69 66 66 65 64 65 68 69 69 68 64 60 58 57 57 59 61 64 65 67 69 71 73 73 72 72 73 74 74 73 72 72 71 70 70 69 68 67 66 66 66 66
56 56 55 55 55 54 55 55 55 55 55 54 53 52 50 49 47 45 44 43 42 41 39 38 37 37 39 42 46 49 53 57 64 74 86 87 86 84 83 82 82 82 80 75 70 67 66 64 63 62 65 68 70 70 68 64 61 59 58 59 61 63 64 65 67 69 71 72 72 71 72 73 74 74 75 74 74 74 74 74 74 72 71 70 70 69
56 56 56 55 55 55 55 56 56 55 55 54 53 52 51 49 48 47 45 44 43 42 41 40 40 40 41 43 47 51 56 61 70 79 87 87 87 86 84 84 84 83 82 78 73 69 66 64 62 62 64 68 71 72 71 67 63 60 59 60 61 63 64 65 65 66 68 69 69 70 70 72 73 75 76 77 77 78 78 79 79 79 77 76 76 75
55 54 55 54 54 55 56 56 56 55 55 54 53 52 51 50 48 47 46 45 44 43 43 43 42 43 43 45 48 53 58 65 73 81 87 87 87 87 86 86 86 86 84 81 76 71 68 65 63 63 64 69 71 73 74 70 65 61 60 61 62 63 63 64 64 64 65 66 67 68 69 71 73 75 77 79 81 82 83 84 84 84 83 82 83 83
54 54 54 53 54 54 55 55 55 54 54 54 53 52 51 49 48 48 47 46 45 45 45 46 46 45 45 47 50 55 63 68 77 85 87 87 87 88 87 87 87 87 85 85 81 75 70 67 65 64 65 69 71 73 75 72 68 65 64 63 62 62 62 63 63 63 64 66 67 68 69 70 72 74 77 80 84 86 88 88 88 88 88 89 89 89
53 53 53 53 53 54 54 54 53 53 53 53 53 52 51 50 49 48 47 47 47 47 48 48 48 48 47 48 52 58 66 71 78 84 87 87 87 87 88 88 88 87 86 86 84 80 75 71 68 67 66 68 71 74 75 74 72 69 65 63 62 62 62 63 63 64 66 67 68 69 69 70 71 72 75 78 81 84 86 88 89 90 90 91 91 91
53 53 52 53 53 53 53 52 52 52 53 54 54 54 53 52 51 50 49 49 48 49 50 50 50 50 49 50 54 61 68 74 80 85 87 86 86 86 88 88 88 87 86 86 85 84 81 76 73 70 70 71 74 76 77 76 74 71 66 64 63 64 65 64 65 67 69 69 69 69 69 69 70 71 72 73 75 77 80 84 87 89 89 90 90 90
52 52 52 52 52 52 52 52 53 54 55 56 56 56 56 55 55 54 53 52 52 52 52 52 52 52 51 52 56 62 69 74 80 85 87 86 86 86 87 88 88 88 87 86 86 85 84 81 79 77 77 78 79 79 78 76 75 73 70 67 66 66 65 65 66 67 68 69 69 69 69 69 69 69 70 71 72 72 74 76 80 84 86 87 88 88
51 51 51 51 51 52 53 54 55 56 57 58 58 58 59 59 59 58 58 57 56 55 55 55 54 54 52 53 57 63 68 73 79 84 86 86 85 85 86 87 88 88 87 87 87 86 84 83 82 81 81 82 82 82 80 78 76 74 73 71 70 68 66 65 65 66 66 67 68 68 69 68 68 68 69 70 70 71 71 72 75 78 80 82 83 84
50 51 51 51 52 53 54 56 57 59 60 60 61 61 62 63 64 63 62 61 60 59 58 57 56 55 54 54 58 63 68 72 77 81 85 85 85 85 86 87 88 88 88 87 87 87 86 85 84 82 81 82 83 84 83 80 78 76 75 74 72 70 68 67 66 66 65 66 67 68 68 68 68 68 68 69 69 70 70 71 73 74 76 77 77 78
50 50 51 52 53 55 56 58 60 61 62 62 63 64 65 67 67 67 66 64 63 61 59 58 57 56 55 56 59 63 66 70 75 79 83 85 85 84 85 86 87 88 88 88 87 87 87 87 86 84 83 82 82 83 84 82 80 78 77 76 74 72 69 68 67 66 66 66 67 67 68 68 68 68 68 68 69 69 70 71 72 73 73 73 72 72
49 51 52 53 54 56 58 59 61 63 64 64 64 65 67 68 69 69 68 67 65 63 61 59 58 57 57 57 59 62 65 68 72 77 81 84 84 84 84 86 87 88 88 88 87 87 86 86 86 86 84 82 82 83 84 84 82 79 77 76 75 73 71 69 68 67 66 66 66 66 67 67 68 68 68 68 68 69 70 71 71 72 72 70 69 68
48 50 52 54 55 57 59 61 63 65 66 66 65 66 67 67 68 69 69 68 67 65 63 61 60 58 58 58 60 62 64 67 70 74 79 82 84 84 83 85 87 87 88 88 87 87 86 85 86 87 86 83 82 82 84 84 83 81 78 76 75 73 72 70 69 68 67 66 66 66 66 67 69 70 69 69 69 69 69 70 71 70 70 69 68 68
46 49 52 54 56 57 59 62 64 66 68 67 66 65 65 66 67 68 69 69 69 68 65 63 61 60 59 60 61 62 63 65 68 72 77 80 83 83 82 85 86 87 87 87 87 87 86 84 84 86 86 84 83 83 84 84 83 83 81 78 76 73 72 72 70 69 67 66 66 65 66 67 69 72 72 72 71 70 69 69 70 70 69 69 69 69
45 48 52 54 56 58 60 63 66 68 69 67 66 64 64 64 65 67 69 70 71 70 69 66 64 62 61 61 62 63 63 64 66 70 75 79 81 82 82 84 85 87 87 87 87 87 86 85 84 84 85 85 85 83 82 83 84 83 83 81 78 75 73 73 71 70 68 67 67 67 67 68 70 72 74 74 73 72 71 70 69 69 70 70 71 72